Fort Knox, KY

6:36 AM EDT on May 30, 2017 (GMT -0400)
Godman Army Air Field

Weather History for KFTK - September, 2013

Change the Weather History Date:

Sunday, September 15, 2013

  Actual Average Record
Temperature  
Mean Temperature 63 °F -  
Max Temperature 79 °F 77 °F 92 °F (2010)
Min Temperature 47 °F 55 °F 44 °F (1996)
Degree Days  
Heating Degree Days 2    
Growing Degree Days 13 (Base 50)    
Moisture  
Dew Point 55 °F    
Average Humidity 75    
Maximum Humidity 98    
Minimum Humidity 48    
Precipitation  
Precipitation 0.00 in - - ()
Sea Level Pressure  
Sea Level Pressure 30.09 in    
Wind  
Wind Speed 2 mph (SSW)    
Max Wind Speed 10 mph    
Max Gust Speed -    
Visibility 10 miles    
Events Rain    
Averages and records for this station are not official NWS values.
T = Trace of Precipitation, MM = Missing Value Source: NWS Daily Summary

Daily Weather History Graph

Daily Weather History Graph

Search for Another Location

Airport or City:

Trip Planner

Search our weather history database for the weather conditions in past years. The results will help you decide how hot, cold, wet, or windy it might be!

Date:

Astronomy

Sep. 15, 2013 Rise Set
Actual Time 7:25 AM EDT 7:51 PM EDT
Civil Twilight 6:59 AM EDT 8:17 PM EDT
Nautical Twilight 6:28 AM EDT 8:48 PM EDT
Astronomical Twilight 5:56 AM EDT 9:20 PM EDT
Moon 5:15 PM EDT (9/15) 3:06 AM EDT (9/15)
Length of Visible Light 13h 18m
Length of Day
12h 25m
Waxing Gibbous, 82% of the Moon is Illuminated
Sep 15
Waxing Gibbous
Sep 19
Full
Sep 26
Last Quarter
Oct 4
New
Oct 11
First Quarter

Hourly Weather History & Observations

Time (EDT) Temp. Dew Point Humidity Pressure Visibility Wind Dir Wind Speed Gust Speed Precip Events Conditions
12:58 AM 52.7 °F 49.3 °F 88% 30.10 in 10.0 mi Calm Calm - N/A   Clear
1:58 AM 51.6 °F 49.1 °F 91% 30.10 in 10.0 mi Calm Calm - N/A   Clear
2:58 AM 49.5 °F 47.8 °F 94% 30.11 in 10.0 mi Calm Calm - N/A   Clear
3:58 AM 48.0 °F 46.9 °F 96% 30.11 in 10.0 mi Calm Calm - N/A   Clear
4:58 AM 48.2 °F 47.1 °F 96% 30.11 in 10.0 mi Calm Calm - N/A   Clear
5:58 AM 47.5 °F 46.9 °F 98% 30.10 in 10.0 mi Calm Calm - N/A   Clear
6:58 AM 48.9 °F 47.7 °F 95% 30.11 in 10.0 mi Calm Calm - N/A   Clear
7:58 AM 49.5 °F 47.8 °F 94% 30.12 in 10.0 mi Calm Calm - N/A   Clear
8:58 AM 53.4 °F 50.2 °F 89% 30.13 in 10.0 mi Calm Calm - N/A   Clear
9:58 AM 61.0 °F 54.5 °F 79% 30.14 in 10.0 mi South 4.6 mph - N/A   Clear
10:58 AM 66.9 °F 56.1 °F 68% 30.14 in 10.0 mi SSE 4.6 mph - N/A   Clear
11:58 AM 71.8 °F 56.5 °F 58% 30.12 in 10.0 mi South 4.6 mph - N/A   Clear
12:58 PM 76.5 °F 57.7 °F 52% 30.11 in 10.0 mi SSW 6.9 mph - N/A   Partly Cloudy
1:58 PM 78.1 °F 57.9 °F 50% 30.10 in 10.0 mi WSW 9.2 mph - N/A   Scattered Clouds
2:58 PM 78.8 °F 58.3 °F 49% 30.08 in 10.0 mi SSW 8.1 mph - N/A   Clear
3:58 PM 79.0 °F 58.1 °F 49% 30.06 in 10.0 mi South 8.1 mph - N/A   Clear
4:58 PM 79.2 °F 58.1 °F 48% 30.06 in 10.0 mi South 10.4 mph - N/A   Clear
5:58 PM 77.9 °F 58.5 °F 51% 30.06 in 10.0 mi SSW 9.2 mph - N/A   Clear
6:58 PM 74.8 °F 59.2 °F 58% 30.06 in 10.0 mi SSW 8.1 mph - N/A   Clear
7:58 PM 70.7 °F 59.0 °F 66% 30.06 in 10.0 mi SW 2.3 mph - N/A   Clear
8:18 PM 68.0 °F 59.0 °F 73% 30.06 in 10.0 mi Calm Calm - N/A Rain Light Rain
8:19 PM 68.0 °F 59.0 °F 73% 30.06 in 10.0 mi Calm Calm - N/A   Clear
8:21 PM 68.0 °F 59.0 °F 73% 30.06 in 10.0 mi Calm Calm - N/A   Light Drizzle
8:38 PM 68.0 °F 60.8 °F 78% 30.06 in 10.0 mi SSE 3.5 mph - N/A   Scattered Clouds
8:58 PM 66.2 °F 59.9 °F 80% 30.06 in 10.0 mi Calm Calm - N/A   Scattered Clouds
9:58 PM 64.6 °F 59.4 °F 83% 30.06 in 10.0 mi Calm Calm - N/A   Scattered Clouds
10:58 PM 63.5 °F 58.8 °F 85% 30.07 in 10.0 mi SSW 4.6 mph - N/A   Clear
11:58 PM 61.9 °F 59.0 °F 90% 30.08 in 10.0 mi Calm Calm - N/A   Mostly Cloudy